GFSNIL_925_temp_003.txt.gz
Temp
12 12 11 11 10 10 10 9 8 8 8 8 7 7 7 7 8 8 8 7 7 7
11 10 10 9 9 9 9 8 7 7 7 7 7 7 7 7 7 7 7 7 7 7
10 9 9 8 8 8 7 7 6 7 6 6 6 6 6 6 6 6 6 6 6 6
8 8 8 8 7 7 6 6 6 6 6 6 6 6 6 5 6 6 5 5 5 5
8 7 7 7 6 6 6 5 5 5 5 5 5 5 5 5 5 5 5 5 5 5
7 7 6 6 5 5 5 5 5 5 5 4 4 4 4 4 4 3 3 4 4 4
6 5 5 5 4 4 4 4 4 4 4 4 4 3 3 3 2 2 2 2 2 3
5 5 4 4 4 4 4 4 4 4 3 4 3 3 3 1 1 0 1 1 2 2
4 4 4 4 3 3 3 3 4 3 3 3 3 3 2 1 -0 -0 -0 1 1 1
4 4 4 3 3 3 4 3 3 3 3 3 2 2 1 -0 -1 -1 0 1 1 1
4 4 3 3 3 3 3 3 3 2 2 2 1 1 0 -1 -1 -1 0 1 1 1
3 3 3 3 3 3 3 2 2 2 1 1 1 0 -0 -1 -1 -1 -0 0 -0 -0
2 2 2 2 2 2 2 1 1 1 1 1 1 -0 -1 -1 -1 -1 -1 -1 -1 -1
2 2 2 1 1 1 1 1 1 1 1 1 0 -0 -0 -1 -1 -1 -1 -2 -1 -1

GFSNIL_925_temp_006.txt.gz
Temp
12 11 11 10 10 10 9 8 8 8 7 7 7 7 7 6 6 6 7 7 6 6
11 10 10 9 9 9 8 8 7 7 7 6 6 6 6 6 6 6 6 6 6 6
10 9 9 9 8 7 7 7 6 6 6 6 6 6 5 5 5 5 5 5 5 5
9 8 8 8 7 7 6 6 6 5 5 5 5 5 5 4 4 4 4 4 3 4
8 8 7 7 6 6 5 5 5 5 5 5 4 4 4 4 4 3 3 2 2 2
7 7 6 6 5 5 5 5 4 4 4 4 4 4 4 3 3 2 1 1 1 1
6 6 5 5 5 4 4 4 4 4 4 4 3 3 3 3 2 1 0 -1 -0 -0
5 5 5 4 4 4 4 4 4 4 3 3 3 3 3 2 2 0 -1 -1 -1 -1
5 4 4 4 4 3 3 3 3 3 3 3 3 2 2 2 1 -0 -1 -2 -1 -0
4 4 4 3 3 3 3 3 3 3 2 2 2 1 2 1 0 -1 -2 -1 -1 -1
4 4 3 3 3 3 3 2 2 2 1 1 1 1 1 1 -0 -1 -1 -1 -1 -1
3 3 3 3 2 2 2 1 1 1 1 1 1 1 1 0 -0 -1 -1 -2 -1 -1
3 2 2 2 2 1 1 0 0 0 0 0 0 0 0 0 -0 -1 -1 -2 -2 -2
2 2 2 2 1 1 0 0 0 0 -0 -0 -0 -1 -1 -1 -1 -1 -2 -2 -3 -3

GFSNIL_925_temp_009.txt.gz
Temp
12 12 11 10 10 9 9 8 8 8 7 7 7 7 6 6 6 5 5 5 5 5
11 10 10 9 9 8 8 7 7 7 7 7 6 6 5 5 5 4 4 4 4 4
10 9 9 9 8 8 7 7 7 7 6 6 5 5 5 4 4 4 3 3 3 2
9 8 8 8 7 7 7 7 6 6 5 5 5 4 4 4 3 3 3 2 1 1
8 8 7 7 7 7 6 6 5 5 4 4 4 4 3 3 3 3 2 1 0 -0
7 7 7 6 6 6 5 5 5 4 4 4 3 3 3 3 3 2 1 1 -0 -1
7 6 6 6 5 5 5 5 4 4 3 3 3 3 2 2 2 2 1 -0 -1 -2
6 6 5 5 5 5 4 4 3 3 3 3 2 2 2 2 2 1 0 -1 -1 -2
5 5 5 4 4 4 4 3 3 2 2 2 1 1 1 1 1 1 -0 -1 -1 -2
5 4 4 4 3 3 3 2 2 2 1 1 1 0 1 1 1 0 -0 -1 -1 -2
4 4 4 3 3 2 2 1 1 1 0 0 0 -0 0 0 0 -0 -1 -1 -2 -2
4 3 3 2 2 2 1 1 1 0 -0 -0 -1 -1 -1 -0 -1 -2 -2 -2 -2 -2
3 3 2 2 2 1 1 0 0 -0 -1 -1 -2 -2 -2 -2 -2 -2 -2 -2 -3 -3
2 2 2 1 1 1 0 0 -0 -1 -1 -2 -2 -3 -3 -3 -2 -2 -3 -4 -4 -4

GFSNIL_925_temp_012.txt.gz
Temp
13 13 12 11 11 10 9 8 7 7 7 6 6 6 6 5 5 4 4 4 3 3
12 12 11 10 9 9 8 7 7 7 6 6 6 5 5 4 4 4 3 3 2 2
11 10 10 9 9 8 7 7 7 6 6 6 5 4 4 4 3 3 3 2 2 1
9 9 8 8 8 7 7 6 6 6 5 5 4 4 3 3 3 2 2 2 1 0
8 8 8 7 7 6 6 6 5 5 4 4 3 3 3 2 2 2 2 1 1 -0
7 7 7 6 6 6 6 5 4 4 4 3 3 2 2 2 1 1 1 1 -0 -1
7 7 6 6 6 5 5 4 4 3 3 2 2 1 1 1 1 1 1 0 -0 -1
6 6 6 5 5 4 4 3 3 2 2 1 1 0 1 1 1 1 0 0 -0 -1
5 5 5 4 4 4 3 3 2 2 1 1 0 -0 0 1 0 0 -0 -1 -1 -2
5 5 4 4 4 3 3 2 2 1 0 -0 -0 -1 -0 -0 -1 -1 -2 -2 -2 -2
4 4 3 3 3 2 2 1 1 0 -0 -1 -1 -1 -1 -1 -2 -2 -3 -3 -2 -3
4 3 3 3 2 2 1 1 0 -0 -1 -1 -2 -2 -2 -2 -2 -3 -3 -3 -3 -3
3 3 2 2 1 1 0 -0 -1 -1 -1 -2 -2 -2 -3 -2 -2 -3 -3 -3 -4 -4
3 2 2 1 1 0 -0 -1 -1 -2 -2 -2 -3 -3 -3 -2 -2 -2 -3 -4 -4 -4

GFSNIL_925_temp_015.txt.gz
Temp
14 13 12 11 11 10 10 9 8 7 7 6 6 5 5 5 4 4 3 3 2 2
12 12 11 10 10 9 8 8 7 6 6 5 5 5 4 4 3 3 3 2 2 2
11 11 10 10 9 8 7 7 6 6 5 5 4 4 3 3 3 2 2 2 1 1
10 10 9 9 8 8 7 6 6 5 5 4 4 3 3 3 2 2 1 1 1 1
9 8 8 8 7 6 6 5 5 4 4 3 3 3 2 2 1 1 1 1 1 0
8 8 7 7 6 5 5 4 4 4 3 3 2 2 1 1 1 1 1 0 -0 -0
7 7 6 6 5 5 4 4 3 3 2 2 1 1 0 1 0 0 -0 -1 -1 -1
6 6 5 5 4 4 4 3 3 2 2 1 0 -0 0 0 -0 -1 -2 -2 -2 -2
6 5 5 4 4 3 3 3 2 1 1 0 -0 -1 -0 -0 -1 -2 -2 -3 -3 -3
5 4 4 4 3 3 2 2 1 0 -0 -0 -1 -1 -1 -1 -2 -2 -2 -3 -3 -3
4 4 3 3 3 2 1 1 0 -0 -1 -1 -1 -2 -2 -2 -2 -2 -2 -3 -3 -3
4 3 3 2 2 1 1 0 -0 -1 -1 -2 -2 -3 -2 -2 -2 -2 -3 -3 -4 -4
3 3 2 1 1 0 -0 -1 -1 -1 -2 -2 -3 -3 -3 -2 -2 -3 -3 -3 -3 -3
2 2 1 1 0 -0 -1 -1 -2 -2 -2 -3 -3 -3 -3 -3 -2 -2 -2 -3 -4 -4

GFSNIL_925_temp_018.txt.gz
Temp
15 14 13 12 11 10 9 9 8 7 7 6 6 5 5 4 4 3 3 3 2 2
13 13 11 10 10 9 8 8 7 7 6 5 5 4 4 4 3 3 2 2 2 1
12 11 11 10 9 8 7 7 6 6 5 5 4 4 3 3 3 2 2 1 1 1
10 10 9 9 8 7 7 6 6 5 4 4 3 3 3 2 2 1 1 1 0 0
9 9 8 8 7 6 6 5 5 4 4 3 3 2 2 2 1 1 0 0 -0 -1
8 8 7 7 6 6 5 5 4 3 3 3 2 2 1 1 0 0 -0 -1 -1 -2
7 7 6 6 5 5 4 4 3 3 2 2 2 1 1 0 -0 -1 -1 -2 -2 -2
6 6 5 5 5 4 3 3 2 2 2 1 1 0 -0 -0 -0 -1 -2 -2 -2 -3
5 5 5 4 4 3 3 2 2 1 1 0 -0 -1 -1 -0 -1 -2 -2 -2 -2 -3
5 4 4 3 3 2 2 2 1 0 0 -0 -1 -1 -1 -1 -1 -2 -2 -2 -3 -3
4 4 3 3 2 2 1 1 0 -0 -1 -1 -1 -2 -2 -2 -2 -2 -2 -2 -3 -3
4 3 2 2 2 1 1 0 -0 -1 -1 -2 -2 -3 -3 -2 -2 -3 -3 -3 -3 -4
3 3 2 2 1 0 -0 -1 -1 -1 -2 -3 -3 -3 -3 -3 -3 -3 -3 -3 -3 -4
2 2 1 1 0 -0 -1 -1 -2 -2 -3 -3 -3 -4 -4 -3 -3 -3 -3 -3 -4 -5

GFSNIL_925_temp_021.txt.gz
Temp
13 12 11 12 11 10 10 9 8 8 7 7 6 6 5 5 4 4 3 3 2 1
11 11 11 11 10 9 9 8 7 7 6 6 5 5 5 4 4 3 2 2 2 1
10 11 11 10 9 9 8 7 7 6 6 5 5 4 4 4 3 2 2 1 1 0
10 10 10 9 8 8 7 7 6 5 5 4 4 4 3 3 2 1 1 0 -1 -1
10 9 9 8 7 7 7 6 5 5 4 4 3 3 3 2 1 1 -0 -1 -1 -2
8 8 8 7 6 6 5 5 4 4 4 3 3 2 2 1 0 -0 -1 -1 -2 -2
7 7 7 6 5 5 4 4 4 3 3 2 2 2 1 -0 -0 -1 -1 -1 -2 -3
6 6 5 5 4 4 3 3 3 2 2 2 1 0 -1 -0 -0 -1 -2 -2 -2 -3
5 5 4 4 3 3 3 2 2 2 1 1 0 -0 -1 -1 -1 -2 -2 -3 -3 -3
4 4 3 3 3 2 2 2 1 1 1 -0 -1 -1 -1 -1 -1 -2 -3 -3 -3 -3
4 3 3 3 2 2 1 1 1 -0 -1 -1 -1 -2 -2 -2 -2 -3 -3 -3 -3 -3
3 3 2 2 1 1 1 0 -0 -1 -1 -2 -2 -3 -3 -2 -3 -3 -3 -3 -3 -4
3 3 2 2 1 0 0 -1 -1 -1 -2 -3 -3 -3 -3 -3 -3 -3 -3 -3 -3 -4
2 2 1 1 0 -0 -1 -1 -2 -2 -2 -3 -3 -4 -4 -3 -3 -3 -3 -3 -3 -4

GFSNIL_925_temp_027.txt.gz
Temp
15 13 12 11 9 9 9 10 9 9 9 8 7 7 7 7 7 6 6 6 5 5
13 12 11 11 10 11 11 10 9 9 8 8 7 7 7 7 7 6 6 5 5 5
12 11 11 11 12 11 10 9 9 8 8 7 7 6 6 6 6 5 5 5 4 4
10 10 10 10 10 9 9 8 8 8 7 7 6 6 6 6 5 5 5 4 4 3
9 8 9 9 9 8 8 8 8 7 7 6 6 5 5 5 5 4 4 4 3 3
8 9 8 8 8 7 7 7 6 6 6 5 5 4 4 4 4 4 4 3 3 2
7 8 7 8 7 7 6 6 6 5 5 4 4 3 3 3 3 3 3 3 2 2
7 6 6 6 6 6 6 5 5 4 3 3 3 3 2 2 2 3 3 2 2 1
6 6 5 5 5 4 4 4 4 3 3 2 2 2 1 -0 1 1 2 2 1 1
5 5 5 4 4 4 4 3 3 2 2 2 2 1 -0 -1 -1 0 1 1 1 0
4 4 4 4 4 4 3 3 3 2 2 1 1 0 -1 -2 -1 0 1 1 0 -0
5 5 4 4 4 3 3 2 2 1 1 1 1 0 -1 -2 -1 -0 0 0 0 -0
5 4 4 3 3 2 2 2 1 1 1 1 -0 -0 -2 -2 -2 -1 -1 -1 -1 -1
4 3 3 2 2 1 2 1 1 1 1 1 0 -1 -2 -2 -3 -2 -2 -2 -1 -1